Regional Weather Roundup
Issued by NWS

Home | Current Version | Previous Version | Text Only | Print | Product List | Glossary Off
Versions: 1 2 3 4 5 6 7 8 9 10 11 12 13 14 15 16 17 18 19 20 21 22 23 24 25 26 27 28 29 30 31 32 33 34 35 36 37 38 39 40 41 42 43 44 45 46 47 48 49 50

000
ASUS43 KLMK 251802
RWRKY
KENTUCKY REGIONAL WEATHER ROUNDUP
NATIONAL WEATHER SERVICE LOUISVILLE KY
200 PM EDT SAT APR 25 2015

NOTE "FAIR" INDICATES FEW OR NO CLOUDS BELOW 12,000 FEET
WITH NO SIGNIFICANT WEATHER AND/OR OBSTRUCTIONS TO VISIBILITY.

KYZ001>023-026-027-061>063-070>075-251900-
WESTERN AND SOUTH CENTRAL KENTUCKY

CITY           SKY/WX    TMP DP  RH WIND       PRES   REMARKS
PADUCAH        MOSUNNY   74  59  59 SW15G24   29.52F
HENDERSON      PTSUNNY   73  59  60 SW21G26   29.51F
OWENSBORO      PTSUNNY   74  63  68 SW14      29.52F
HOPKINSVILLE   PTSUNNY   76  63  63 SW16G26   29.55F
BOWLING GREEN  CLOUDY    73  61  65 SW14G25   29.57F
GLASGOW        NOT AVBL
$$

KYZ024-025-028>034-038-045-046-053-251900-
NORTH CENTRAL KENTUCKY

CITY           SKY/WX    TMP DP  RH WIND       PRES   REMARKS
LOUISVILLE/SDF CLOUDY    56  54  93 NE5       29.57F
LOUISVILLE/LOU CLOUDY    56  53  90 NE5       29.59F
FORT KNOX      CLOUDY    63  59  88 S6        29.54F
$$

KYZ035>037-039>044-047>052-055>060-089>105-251900-
NORTHEAST KENTUCKY

CITY           SKY/WX    TMP DP  RH WIND       PRES   REMARKS
LEXINGTON      CLOUDY    53  52  96 SE6       29.61F
COVINGTON      RAIN      48  46  93 E14       29.64F FOG
FRANKFORT      CLOUDY    53  51  93 E7        29.59F
$$

KYZ054-064>069-076>088-106>120-251900-
SOUTHEAST KENTUCKY

CITY           SKY/WX    TMP DP  RH WIND       PRES   REMARKS
JACKSON        CLOUDY    53  50  89 CALM      29.65F
LONDON         CLOUDY    69  54  58 S7        29.63F
SOMERSET       NOT AVBL
MIDDLESBORO    CLOUDY    61  55  80 S8        29.68F
MONTICELLO     MOCLDY    73  60  63 S9        29.64F
$$




USA.gov is the U.S. government's official web portal to all federal, state and local government web resources and services.